Sioux Falls, SD

1:32 PM CST on December 07, 2019 (GMT -0600)
Foss

Weather History for KFSD - July, 2019

Change the Weather History Date:

Friday, July 19, 2019

  Actual Average Record
Temperature  
Mean Temperature 85 °F 73 °F  
Max Temperature 96 °F 84 °F 106 °F (1926)
Min Temperature 73 °F 62 °F 47 °F (1911)
Degree Days  
Heating Degree Days 0 0  
Month to date heating degree days 0 0  
Since 1 June heating degree days 20 51  
Since 1 July heating degree days 0 0  
Cooling Degree Days 20 9  
Month to date cooling degree days 245 158  
Year to date cooling degree days 449 329  
Since 1 June cooling degree days 434 293  
Growing Degree Days 34 (Base 50)    
Moisture  
Dew Point 75 °F    
Average Humidity 78    
Maximum Humidity 100    
Minimum Humidity 56    
Precipitation  
Precipitation 0.00 in 0.10 in 2.65 in (1900)
Month to date precipitation 5.49 1.91  
Year to date precipitation 25.92 15.16  
Snow  
Snow 0.00 in 0.00 in 0.00 in ()
Month to date snowfall 0.0 0.0  
Since 1 June snowfall T 0.0  
Since 1 July snowfall 0.0 0.0  
Snow Depth 0.00 in    
Sea Level Pressure  
Sea Level Pressure 29.65 in    
Wind  
Wind Speed 10 mph (SE)    
Max Wind Speed 21 mph    
Max Gust Speed 29 mph    
Visibility 7 miles    
Events Fog    
T = Trace of Precipitation, MM = Missing Value Source: NWS Daily Summary

Daily Weather History Graph

Daily Weather History Graph

Search for Another Location

Airport or City:

Astronomy

Jul. 19, 2019 Rise Set
Actual Time 6:02 AM CDT 9:03 PM CDT
Civil Twilight 5:28 AM CDT 9:37 PM CDT
Nautical Twilight 4:45 AM CDT 10:20 PM CDT
Astronomical Twilight 3:53 AM CDT 11:12 PM CDT
Moon 10:57 PM CDT (7/19) 8:33 AM CDT (7/19)
Length of Visible Light 16h 08m
Length of Day
15h 00m
Waning Gibbous, 93% of the Moon is Illuminated
Jul 19
Waning Gibbous
Jul 24
Last Quarter
Jul 31
New
Aug 7
First Quarter
Aug 15
Full

Hourly Weather History & Observations

Time (CDT) Temp. Heat Index Dew Point Humidity Pressure Visibility Wind Dir Wind Speed Gust Speed Precip Events Conditions
12:56 AM 75.9 °F - 73.9 °F 94% 29.65 in 10.0 mi NE 5.8 mph - N/A   Clear
1:56 AM 75.9 °F - 73.0 °F 91% 29.66 in 10.0 mi Calm Calm - N/A   Clear
2:56 AM 73.9 °F - 73.0 °F 97% 29.65 in 6.0 mi NE 3.5 mph - N/A   Clear
3:56 AM 73.9 °F - 72.0 °F 93% 29.64 in 7.0 mi NE 4.6 mph - N/A   Clear
4:56 AM 73.9 °F - 72.0 °F 93% 29.64 in 7.0 mi East 5.8 mph - N/A   Clear
5:56 AM 75.0 °F - 73.0 °F 94% 29.65 in 4.0 mi SE 6.9 mph - N/A   Mostly Cloudy
5:58 AM 75.0 °F - 73.0 °F 94% 29.69 in 4.0 mi ESE 6.9 mph - N/A   Mostly Cloudy
6:18 AM 75.9 °F - 73.9 °F 94% 29.67 in 2.0 mi East 8.1 mph - N/A   Overcast
6:23 AM 75.9 °F - 73.9 °F 94% 29.67 in 1.0 mi East 8.1 mph - N/A   Overcast
6:25 AM 75.9 °F - 73.9 °F 94% 29.67 in 0.8 mi Variable 6.9 mph - N/A   Overcast
6:44 AM 75.9 °F - 75.0 °F 97% 29.68 in 0.2 mi East 3.5 mph - N/A Fog Fog
6:56 AM 77.0 °F - 75.0 °F 94% 29.64 in 0.2 mi ESE 6.9 mph - N/A Fog Fog
7:04 AM 77.0 °F - 75.2 °F 94% 29.68 in 0.5 mi SE 5.8 mph - N/A Fog Fog
7:21 AM 77.0 °F - 75.9 °F 96% 29.68 in 2.0 mi ESE 6.9 mph - N/A   Mostly Cloudy
7:30 AM 78.1 °F - 75.9 °F 93% 29.67 in 3.0 mi ESE 6.9 mph - N/A   Scattered Clouds
7:56 AM 80.1 °F 85.4 °F 75.9 °F 87% 29.62 in 7.0 mi SE 9.2 mph - N/A   Scattered Clouds
8:56 AM 82.0 °F 89.4 °F 75.9 °F 82% 29.62 in 10.0 mi SSE 16.1 mph - N/A   Scattered Clouds
9:56 AM 86.0 °F 96.9 °F 77.0 °F 74% 29.60 in 10.0 mi South 13.8 mph 26.5 mph N/A   Scattered Clouds
10:56 AM 87.1 °F 98.8 °F 77.0 °F 72% 29.60 in 10.0 mi South 16.1 mph 26.5 mph N/A   Scattered Clouds
11:56 AM 88.0 °F 98.5 °F 75.9 °F 67% 29.61 in 10.0 mi SSW 18.4 mph 26.5 mph N/A   Partly Cloudy
12:56 PM 90.0 °F 104.5 °F 78.1 °F 68% 29.62 in 10.0 mi SSW 15.0 mph 20.7 mph N/A   Partly Cloudy
1:56 PM 91.9 °F 105.9 °F 77.0 °F 62% 29.62 in 10.0 mi SW 8.1 mph 19.6 mph N/A   Partly Cloudy
2:56 PM 93.0 °F 106.7 °F 77.0 °F 59% 29.62 in 10.0 mi SSW 11.5 mph 18.4 mph N/A   Partly Cloudy
3:56 PM 93.9 °F 108.4 °F 77.0 °F 58% 29.62 in 10.0 mi SW 9.2 mph - N/A   Partly Cloudy
4:56 PM 93.9 °F 106.9 °F 75.9 °F 56% 29.63 in 10.0 mi WSW 8.1 mph - N/A   Partly Cloudy
5:56 PM 95.0 °F 109.7 °F 77.0 °F 56% 29.64 in 10.0 mi West 10.4 mph - N/A   Partly Cloudy
6:56 PM 93.9 °F 108.4 °F 77.0 °F 58% 29.63 in 10.0 mi WNW 9.2 mph - N/A   Scattered Clouds
7:56 PM 91.9 °F 105.9 °F 77.0 °F 62% 29.64 in 10.0 mi West 4.6 mph - N/A   Partly Cloudy
8:56 PM 87.1 °F 101.5 °F 79.0 °F 77% 29.66 in 10.0 mi NNW 8.1 mph - N/A   Scattered Clouds
9:56 PM 84.9 °F 96.6 °F 78.1 °F 80% 29.68 in 10.0 mi North 5.8 mph - N/A   Mostly Cloudy
10:56 PM 82.0 °F 89.4 °F 75.9 °F 82% 29.72 in 10.0 mi NNE 18.4 mph - N/A   Mostly Cloudy
11:56 PM 80.1 °F 84.5 °F 73.9 °F 81% 29.73 in 10.0 mi NE 11.5 mph - N/A   Mostly Cloudy